Simultaneous Nadir Overpasses (SNOs) Predictions

Prediction of SNOs between AQUA and METOP-B Satellite Orbit:

Table of predicted SNOs for the next 14.0 days since TLE Epoch: 8/19/2017
Index Date (AQUA) Time (AQUA) Lat,Lon (AQUA) SZA (AQUA ) Date (METOP-B) Time (METOP-B) Lat,Lon (METOP-B) SZA (METOP-B ) Distance(km) Time Diff (sec)
1 08/19/2017 16:32:18 73.77, -73.77 61.25 08/19/2017 16:31:19 73.76, -73.86 61.26 2.81 59
2 08/19/2017 17:21:46 -73.89, 93.61 118.62 08/19/2017 17:21:59 -73.87, 93.71 118.64 3.68 13
3 08/19/2017 18:11:21 74.28, -99.66 61.82 08/19/2017 18:12:30 74.28, -97.93 61.76 52.27 69
4 08/22/2017 12:06:33 73.78, -7.37 62.19 08/22/2017 12:05:39 73.76, -7.45 62.19 3.45 54
5 08/22/2017 12:56:00 -73.85, 160.13 117.73 08/22/2017 12:56:19 -73.87, 160.13 117.71 2.57 19
6 08/22/2017 13:45:40 74.50, -33.75 62.99 08/22/2017 13:46:46 74.48, -31.01 62.87 81.45 66
7 08/25/2017 07:40:48 73.80, 59.03 63.17 08/25/2017 07:39:58 73.81, 59.07 63.19 1.67 50
8 08/25/2017 08:30:15 -73.87,-133.48 116.75 08/25/2017 08:30:39 -73.87,-133.45 116.75 0.90 24
9 08/28/2017 03:15:02 73.83, 125.41 64.17 08/28/2017 03:14:17 73.81, 125.47 64.16 2.91 45
10 08/28/2017 04:04:29 -73.89, -67.09 115.75 08/28/2017 04:04:58 -73.88, -67.04 115.77 2.59 29
11 08/30/2017 22:49:16 73.81,-168.10 65.15 08/30/2017 22:48:37 73.81,-168.12 65.15 0.73 39
12 08/30/2017 23:38:43 -73.87, -0.61 114.77 08/30/2017 23:39:18 -73.88, -0.64 114.77 0.92 35




NCC Satellite Simultaneous Nadir Overpasses (SNOs) Prediction Service
